| time (UTC) | temp F | wind direction | speed knots | gust knots | rain 1hr in | rain 24hr in | rain mn in | humidity % | barometer mb |
| 20260507183702 | 61 | 0 | 0.0 | 0.0 | 0.00 | 0.00 | 0.00 | 80 | 1012.1 |
| 20260507182802 | 61 | 129 | 1.7 | 3.5 | 0.00 | 0.00 | 0.00 | 79 | 1012.0 |
| 20260507181902 | 62 | 127 | 2.6 | 6.1 | 0.00 | 0.00 | 0.00 | 79 | 1012.0 |
| 20260507181002 | 62 | 127 | 2.6 | 3.5 | 0.00 | 0.00 | 0.00 | 77 | 1011.9 |
| 20260507175202 | 63 | 125 | 2.6 | 6.1 | 0.00 | 0.00 | 0.00 | 75 | 1011.9 |
| 20260507174302 | 63 | 131 | 3.5 | 6.1 | 0.00 | 0.00 | 0.00 | 74 | 1012.0 |
| 20260507173402 | 63 | 122 | 3.5 | 7.8 | 0.00 | 0.00 | 0.00 | 72 | 1012.0 |
| 20260507172502 | 63 | 120 | 3.5 | 7.8 | 0.00 | 0.00 | 0.00 | 70 | 1011.9 |
| 20260507171603 | 64 | 132 | 3.5 | 7.0 | 0.00 | 0.00 | 0.00 | 69 | 1011.9 |
| 20260507170702 | 64 | 139 | 3.5 | 7.0 | 0.00 | 0.00 | 0.00 | 68 | 1011.8 |
| 20260507165802 | 64 | 126 | 3.5 | 7.0 | 0.00 | 0.01 | 0.00 | 67 | 1012.0 |
| 20260507164002 | 65 | 133 | 4.3 | 8.7 | 0.00 | 0.02 | 0.00 | 66 | 1012.0 |
| 20260507163102 | 65 | 133 | 3.5 | 8.7 | 0.00 | 0.02 | 0.00 | 66 | 1012.0 |
| 20260507162202 | 65 | 134 | 4.3 | 8.7 | 0.00 | 0.02 | 0.00 | 65 | 1012.0 |
| 20260507161302 | 65 | 131 | 4.3 | 9.6 | 0.00 | 0.02 | 0.00 | 65 | 1011.9 |
| 20260507160402 | 65 | 118 | 4.3 | 7.8 | 0.00 | 0.02 | 0.00 | 65 | 1011.9 |
| 20260507155502 | 65 | 124 | 4.3 | 8.7 | 0.00 | 0.02 | 0.00 | 65 | 1011.9 |
| 20260507154602 | 65 | 131 | 5.2 | 8.7 | 0.00 | 0.02 | 0.00 | 66 | 1011.8 |
| 20260507153702 | 65 | 120 | 6.1 | 9.6 | 0.00 | 0.02 | 0.00 | 66 | 1012.0 |
| 20260507152802 | 65 | 112 | 6.1 | 9.6 | 0.00 | 0.02 | 0.00 | 66 | 1011.9 |
| 20260507151902 | 64 | 117 | 5.2 | 9.6 | 0.00 | 0.09 | 0.00 | 67 | 1011.9 |
| 20260507151003 | 65 | 118 | 7.0 | 11.3 | 0.00 | 0.57 | 0.00 | 66 | 1012.0 |
| 20260507145202 | 65 | 125 | 7.0 | 13.0 | 0.00 | 0.70 | 0.00 | 67 | 1012.0 |
| 20260507144302 | 65 | 130 | 7.0 | 12.2 | 0.00 | 0.70 | 0.00 | 68 | 1012.1 |
| 20260507143402 | 65 | 128 | 7.8 | 13.0 | 0.00 | 0.70 | 0.00 | 68 | 1012.1 |
| 20260507141603 | 65 | 127 | 7.0 | 13.0 | 0.00 | 0.70 | 0.00 | 69 | 1012.3 |
| 20260507140702 | 65 | 124 | 7.0 | 13.0 | 0.00 | 0.70 | 0.00 | 70 | 1012.1 |
| 20260507135802 | 65 | 132 | 7.8 | 15.6 | 0.00 | 0.70 | 0.00 | 67 | 1012.4 |
| 20260507134002 | 65 | 129 | 9.6 | 15.6 | 0.00 | 0.70 | 0.00 | 69 | 1012.6 |
| 20260507133102 | 65 | 127 | 8.7 | 16.5 | 0.00 | 0.70 | 0.00 | 70 | 1012.6 |
| 20260507132202 | 65 | 133 | 8.7 | 14.8 | 0.00 | 0.70 | 0.00 | 69 | 1012.7 |
| 20260507131302 | 66 | 127 | 8.7 | 15.6 | 0.00 | 0.70 | 0.00 | 70 | 1012.6 |
| 20260507130402 | 66 | 130 | 8.7 | 15.6 | 0.00 | 0.70 | 0.00 | 68 | 1012.6 |
| 20260507125502 | 66 | 133 | 7.8 | 14.8 | 0.00 | 0.70 | 0.00 | 67 | 1012.7 |
| 20260507123702 | 66 | 123 | 7.8 | 14.8 | 0.00 | 0.70 | 0.00 | 69 | 1012.7 |
| 20260507121903 | 65 | 133 | 6.1 | 11.3 | 0.00 | 0.70 | 0.00 | 71 | 1012.7 |
| 20260507121002 | 65 | 131 | 6.1 | 12.2 | 0.00 | 0.70 | 0.00 | 71 | 1012.6 |
| 20260507115202 | 65 | 127 | 6.1 | 13.9 | 0.00 | 0.70 | 0.00 | 73 | 1012.7 |
| 20260507113402 | 66 | 127 | 5.2 | 11.3 | 0.00 | 0.70 | 0.00 | 72 | 1012.9 |
| 20260507112502 | 66 | 126 | 4.3 | 10.4 | 0.00 | 0.82 | 0.00 | 73 | 1012.9 |
| 20260507111602 | 65 | 127 | 5.2 | 10.4 | 0.00 | 0.83 | 0.00 | 74 | 1012.9 |
| 20260507110702 | 65 | 133 | 4.3 | 10.4 | 0.00 | 0.83 | 0.00 | 72 | 1013.0 |
| 20260507104902 | 65 | 141 | 2.6 | 7.0 | 0.00 | 0.83 | 0.00 | 72 | 1012.9 |
| 20260507104003 | 65 | 144 | 2.6 | 8.7 | 0.00 | 0.83 | 0.00 | 73 | 1013.1 |
| 20260507103102 | 65 | 148 | 1.7 | 10.4 | 0.00 | 0.83 | 0.00 | 73 | 1013.3 |
| 20260507102202 | 65 | 128 | 2.6 | 4.3 | 0.00 | 0.83 | 0.00 | 74 | 1013.3 |
| 20260507101302 | 65 | 130 | 1.7 | 7.8 | 0.00 | 0.83 | 0.00 | 73 | 1013.4 |
| 20260507100402 | 65 | 128 | 0.0 | 7.0 | 0.00 | 0.83 | 0.00 | 75 | 1013.4 |
| 20260507095502 | 64 | 0 | 0.0 | 0.0 | 0.00 | 0.83 | 0.00 | 76 | 1013.4 |
| 20260507093702 | 63 | 99 | 0.9 | 2.6 | 0.00 | 0.83 | 0.00 | 76 | 1013.4 |
| 20260507092802 | 63 | 102 | 0.9 | 3.5 | 0.00 | 0.83 | 0.00 | 75 | 1013.4 |
| 20260507091902 | 64 | 145 | 0.9 | 5.2 | 0.00 | 0.83 | 0.00 | 75 | 1013.3 |
| 20260507091002 | 63 | 152 | 0.0 | 4.3 | 0.00 | 0.83 | 0.00 | 76 | 1013.4 |
| 20260507085202 | 62 | 151 | 0.0 | 3.5 | 0.00 | 0.83 | 0.00 | 77 | 1013.4 |
| 20260507084302 | 62 | 120 | 0.0 | 0.9 | 0.00 | 0.83 | 0.00 | 78 | 1013.5 |
| 20260507082502 | 62 | 120 | 0.0 | 1.7 | 0.00 | 0.83 | 0.00 | 76 | 1013.7 |
| 20260507081602 | 61 | 0 | 0.0 | 0.0 | 0.00 | 0.83 | 0.00 | 77 | 1013.8 |
| 20260507075802 | 60 | 192 | 0.0 | 2.6 | 0.00 | 0.83 | 0.00 | 80 | 1013.9 |
| 20260507074902 | 60 | 235 | 0.0 | 1.7 | 0.00 | 0.83 | 0.00 | 79 | 1013.8 |
| 20260507073102 | 60 | 0 | 0.0 | 0.0 | 0.00 | 0.83 | 0.00 | 80 | 1013.7 |
| 20260507072202 | 59 | 0 | 0.0 | 0.0 | 0.00 | 0.83 | 0.00 | 82 | 1013.6 |
| 20260507071302 | 57 | 0 | 0.0 | 0.0 | 0.00 | 0.83 | 0.00 | 84 | 1013.6 |
| 20260507065502 | 56 | 0 | 0.0 | 0.0 | 0.00 | 0.83 | 0.00 | 89 | 1013.6 |
| 20260507064602 | 55 | 0 | 0.0 | 0.0 | 0.00 | 0.83 | 0.00 | 90 | 1013.6 |
| 20260507063702 | 54 | 0 | 0.0 | 0.0 | 0.00 | 0.83 | 0.00 | 90 | 1013.5 |
| 20260507062802 | 54 | 230 | 0.0 | 0.9 | 0.00 | 0.83 | 0.00 | 91 | 1013.6 |
| 20260507061902 | 53 | 230 | 1.7 | 2.6 | 0.00 | 0.83 | 0.00 | 91 | 1013.3 |
| 20260507061002 | 52 | 230 | 1.7 | 2.6 | 0.00 | 0.83 | 0.00 | 91 | 1013.3 |
| 20260507054302 | 51 | 239 | 2.6 | 3.5 | 0.00 | 0.83 | 0.00 | 92 | 1013.2 |
| 20260507053402 | 50 | 244 | 0.9 | 3.5 | 0.00 | 0.83 | 0.00 | 91 | 1013.3 |
| 20260507052502 | 50 | 247 | 0.9 | 3.5 | 0.00 | 0.83 | 0.00 | 92 | 1013.1 |
| 20260507051602 | 50 | 248 | 1.7 | 2.6 | 0.00 | 0.83 | 0.00 | 92 | 1013.1 |
| 20260507050702 | 50 | 246 | 1.7 | 2.6 | 0.00 | 0.83 | 0.00 | 91 | 1013.1 |
| 20260507044902 | 50 | 232 | 1.7 | 4.3 | 0.00 | 0.83 | 0.00 | 91 | 1013.1 |
| 20260507043102 | 51 | 219 | 0.9 | 2.6 | 0.00 | 0.83 | 0.00 | 91 | 1013.0 |
| 20260507042202 | 51 | 243 | 1.7 | 2.6 | 0.00 | 0.83 | 0.00 | 91 | 1013.1 |
| 20260507041302 | 51 | 244 | 0.9 | 3.5 | 0.00 | 0.83 | 0.00 | 91 | 1013.0 |
| 20260507040402 | 51 | 0 | 0.0 | 0.0 | 0.00 | 0.83 | 0.00 | 91 | 1013.0 |
| 20260507035502 | 52 | 0 | 0.0 | 0.0 | 0.00 | 0.83 | 0.00 | 91 | 1013.0 |
| 20260507034602 | 52 | 0 | 0.0 | 0.0 | 0.00 | 0.83 | 0.00 | 91 | 1012.9 |
| 20260507033702 | 52 | 0 | 0.0 | 0.0 | 0.00 | 0.83 | 0.00 | 91 | 1013.0 |
| 20260507032802 | 52 | 0 | 0.0 | 0.0 | 0.00 | 0.83 | 0.00 | 91 | 1013.0 |
| 20260507031902 | 53 | 0 | 0.0 | 0.0 | 0.00 | 0.83 | 0.00 | 91 | 1012.9 |
| 20260507031002 | 53 | 0 | 0.0 | 0.0 | 0.00 | 0.83 | 0.00 | 90 | 1012.8 |
| 20260507023402 | 54 | 0 | 0.0 | 0.0 | 0.00 | 0.83 | 0.00 | 90 | 1013.0 |
| 20260507022503 | 54 | 0 | 0.0 | 0.0 | 0.00 | 0.83 | 0.00 | 90 | 1013.0 |
| 20260507021602 | 54 | 0 | 0.0 | 0.0 | 0.00 | 0.83 | 0.00 | 90 | 1013.1 |
| 20260507015802 | 55 | 0 | 0.0 | 0.0 | 0.00 | 0.83 | 0.00 | 90 | 1013.0 |
| 20260507014902 | 55 | 0 | 0.0 | 0.0 | 0.00 | 0.83 | 0.00 | 90 | 1012.9 |
| 20260507014002 | 55 | 0 | 0.0 | 0.0 | 0.00 | 0.83 | 0.00 | 89 | 1013.1 |
| 20260507013102 | 55 | 0 | 0.0 | 0.0 | 0.00 | 0.83 | 0.00 | 89 | 1013.2 |
| 20260507012202 | 55 | 0 | 0.0 | 0.0 | 0.00 | 0.83 | 0.00 | 89 | 1013.3 |
| 20260507011302 | 55 | 0 | 0.0 | 0.0 | 0.00 | 0.83 | 0.00 | 88 | 1013.3 |
| 20260507010402 | 55 | 0 | 0.0 | 0.0 | 0.00 | 0.83 | 0.00 | 88 | 1013.4 |
| 20260507005502 | 55 | 244 | 1.7 | 2.6 | 0.00 | 0.83 | 0.00 | 88 | 1013.5 |
| 20260507004602 | 55 | 244 | 1.7 | 3.5 | 0.00 | 0.83 | 0.00 | 88 | 1013.4 |
| 20260507003702 | 55 | 240 | 1.7 | 5.2 | 0.00 | 0.83 | 0.00 | 88 | 1013.7 |
| 20260507002802 | 55 | 238 | 0.0 | 5.2 | 0.00 | 0.83 | 0.00 | 89 | 1013.6 |
| 20260507001902 | 55 | 0 | 0.0 | 0.0 | 0.00 | 0.83 | 0.00 | 91 | 1013.7 |
| 20260507001002 | 55 | 0 | 0.0 | 0.0 | 0.00 | 0.83 | 0.00 | 91 | 1013.7 |
| 20260506235202 | 55 | 0 | 0.0 | 0.0 | 0.00 | 0.83 | 0.00 | 91 | 1013.8 |
| 20260506234302 | 54 | 0 | 0.0 | 0.0 | 0.00 | 0.83 | 0.00 | 91 | 1013.8 |
| 20260506233402 | 55 | 0 | 0.0 | 0.0 | 0.00 | 0.83 | 0.00 | 91 | 1013.8 |
| 20260506232502 | 54 | 0 | 0.0 | 0.0 | 0.00 | 0.83 | 0.00 | 91 | 1013.8 |
| 20260506231602 | 54 | 264 | 0.9 | 1.7 | 0.00 | 0.83 | 0.00 | 91 | 1013.9 |
| 20260506230702 | 54 | 254 | 1.7 | 3.5 | 0.00 | 0.83 | 0.00 | 91 | 1013.8 |
| 20260506225802 | 54 | 225 | 0.9 | 2.6 | 0.00 | 0.83 | 0.00 | 91 | 1013.9 |
| 20260506224002 | 55 | 0 | 0.0 | 0.0 | 0.00 | 0.83 | 0.00 | 91 | 1013.9 |
| 20260506223101 | 55 | 0 | 0.0 | 0.0 | 0.00 | 0.83 | 0.00 | 91 | 1014.0 |
| 20260506222202 | 55 | 0 | 0.0 | 0.0 | 0.00 | 0.83 | 0.00 | 91 | 1013.9 |
| 20260506221302 | 55 | 0 | 0.0 | 0.0 | 0.00 | 0.83 | 0.00 | 91 | 1013.9 |
| 20260506215502 | 55 | 268 | 1.7 | 3.5 | 0.00 | 0.83 | 0.83 | 91 | 1013.9 |
| 20260506214602 | 55 | 270 | 1.7 | 3.5 | 0.00 | 0.83 | 0.83 | 91 | 1013.9 |
| 20260506213702 | 55 | 274 | 0.0 | 3.5 | 0.00 | 0.83 | 0.83 | 91 | 1013.9 |
| 20260506212801 | 55 | 0 | 0.9 | 0.0 | 0.00 | 0.83 | 0.83 | 92 | 1013.8 |
| 20260506211902 | 55 | 277 | 0.9 | 2.6 | 0.00 | 0.83 | 0.83 | 92 | 1013.9 |
| 20260506211001 | 56 | 0 | 0.0 | 0.0 | 0.00 | 0.83 | 0.83 | 91 | 1013.8 |
| 20260506203402 | 56 | 0 | 0.0 | 0.0 | 0.00 | 0.83 | 0.83 | 91 | 1013.8 |
| 20260506202502 | 56 | 0 | 0.0 | 0.0 | 0.00 | 0.83 | 0.83 | 91 | 1013.8 |
| 20260506201601 | 56 | 0 | 0.0 | 0.0 | 0.00 | 0.83 | 0.83 | 91 | 1013.7 |
| 20260506200702 | 56 | 0 | 0.0 | 0.0 | 0.00 | 0.83 | 0.83 | 91 | 1013.6 |
| 20260506195801 | 56 | 280 | 0.9 | 1.7 | 0.00 | 0.83 | 0.83 | 91 | 1013.5 |
| 20260506194901 | 56 | 280 | 0.0 | 3.5 | 0.00 | 0.83 | 0.83 | 91 | 1013.3 |
| 20260506194002 | 56 | 279 | 0.9 | 2.6 | 0.00 | 0.83 | 0.83 | 91 | 1013.1 |
| 20260506193101 | 56 | 280 | 1.7 | 2.6 | 0.00 | 0.83 | 0.83 | 91 | 1013.1 |
| 20260506192202 | 56 | 280 | 1.7 | 3.5 | 0.00 | 0.83 | 0.83 | 91 | 1012.9 |
| 20260506191301 | 56 | 283 | 1.7 | 2.6 | 0.00 | 0.83 | 0.83 | 91 | 1012.9 |
| 20260506190401 | 56 | 288 | 2.6 | 5.2 | 0.00 | 0.83 | 0.83 | 91 | 1012.8 |
| 20260506185502 | 56 | 291 | 2.6 | 5.2 | 0.00 | 0.83 | 0.83 | 91 | 1012.8 |
| 20260506184602 | 56 | 283 | 2.6 | 7.0 | 0.00 | 0.83 | 0.83 | 91 | 1012.7 |